Cross City, FL

11:03 AM EST on December 08, 2019 (GMT -0500)
Cross City

Weather History for KCTY - November, 2019

Change the Weather History Date:

Tuesday, November 19, 2019

  Actual Average Record
Temperature  
Mean Temperature 55 °F 62 °F  
Max Temperature 68 °F 75 °F 82 °F (1998)
Min Temperature 42 °F 49 °F 23 °F (2008)
Degree Days  
Heating Degree Days 10    
Month to date heating degree days 112  
Since 1 July heating degree days 116  
Cooling Degree Days 0    
Month to date cooling degree days 33  
Year to date cooling degree days 3136  
Growing Degree Days 4 (Base 50)    
Moisture  
Dew Point 44 °F    
Average Humidity 74    
Maximum Humidity 97    
Minimum Humidity 27    
Precipitation  
Precipitation 0.00 in 0.09 in 0.75 in (2003)
Month to date precipitation 3.87 1.51  
Year to date precipitation 54.36 44.74  
Sea Level Pressure  
Sea Level Pressure 29.96 in    
Wind  
Wind Speed 5 mph (WNW)    
Max Wind Speed 16 mph    
Max Gust Speed 21 mph    
Visibility 10 miles    
Events      
T = Trace of Precipitation, MM = Missing Value Source: NWS Daily Summary

Daily Weather History Graph

Daily Weather History Graph

Search for Another Location

Airport or City:

Astronomy

Nov. 19, 2019 Rise Set
Actual Time 6:59 AM EST 5:35 PM EST
Civil Twilight 6:34 AM EST 6:00 PM EST
Nautical Twilight 6:05 AM EST 6:29 PM EST
Astronomical Twilight 5:37 AM EST 6:58 PM EST
Moon No Moon Rise 1:12 PM EST (11/19)
Length of Visible Light 11h 26m
Length of Day
10h 35m
Waning Gibbous, 52% of the Moon is Illuminated
Nov 19
Waning Gibbous
Nov 19
Last Quarter
Nov 26
New
Dec 4
First Quarter
Dec 12
Full

Hourly Weather History & Observations

Time (EST) Temp. Windchill Dew Point Humidity Pressure Visibility Wind Dir Wind Speed Gust Speed Precip Events Conditions
12:35 AM 48.9 °F - 46.6 °F 92% 29.87 in 10.0 mi West 3.5 mph - N/A   Unknown
12:55 AM 48.2 °F - 46.4 °F 93% 29.88 in 10.0 mi Calm Calm - N/A   Unknown
1:55 AM 47.8 °F - 45.9 °F 93% 29.87 in 10.0 mi West 4.6 mph - N/A   Unknown
2:15 AM 49.6 °F - 46.8 °F 90% 29.88 in 10.0 mi WNW 4.6 mph - N/A   Unknown
2:35 AM 49.6 °F - 46.8 °F 90% 29.87 in 10.0 mi WNW 4.6 mph - N/A   Unknown
2:55 AM 49.1 °F - 46.4 °F 90% 29.87 in 10.0 mi WNW 3.5 mph - N/A   Unknown
3:15 AM 47.8 °F - 45.7 °F 92% 29.88 in 10.0 mi WNW 4.6 mph - N/A   Unknown
3:35 AM 46.8 °F - 44.6 °F 92% 29.88 in 10.0 mi WNW 5.8 mph - N/A   Unknown
3:55 AM 46.8 °F - 45.0 °F 93% 29.88 in 10.0 mi WNW 4.6 mph - N/A   Unknown
4:15 AM 46.9 °F - 44.8 °F 92% 29.89 in 10.0 mi WNW 4.6 mph - N/A   Unknown
4:35 AM 46.2 °F 43.3 °F 43.5 °F 90% 29.89 in 10.0 mi NW 5.8 mph - N/A   Unknown
4:55 AM 46.8 °F - 43.5 °F 88% 29.90 in 10.0 mi NW 5.8 mph - N/A   Unknown
5:15 AM 46.2 °F 44.1 °F 43.3 °F 90% 29.91 in 10.0 mi NW 4.6 mph - N/A   Unknown
5:35 AM 45.1 °F 42.8 °F 42.8 °F 91% 29.92 in 10.0 mi WNW 4.6 mph - N/A   Unknown
5:55 AM 45.1 °F - 42.8 °F 91% 29.93 in 10.0 mi Calm Calm - N/A   Unknown
6:15 AM 43.7 °F - 41.9 °F 93% 29.93 in 10.0 mi Calm Calm - N/A   Unknown
6:35 AM 43.9 °F - 42.6 °F 95% 29.94 in 10.0 mi Calm Calm - N/A   Unknown
6:55 AM 42.3 °F - 41.4 °F 97% 29.94 in 10.0 mi Calm Calm - N/A   Unknown
7:15 AM 41.5 °F - 40.6 °F 97% 29.95 in 10.0 mi Calm Calm - N/A   Unknown
7:35 AM 42.4 °F - 41.5 °F 97% 29.95 in - Calm Calm - N/A   Unknown
7:55 AM 45.1 °F - 44.2 °F 97% 29.95 in 10.0 mi Calm Calm - N/A   Unknown
8:35 AM 51.4 °F - 45.3 °F 80% 29.97 in 10.0 mi WNW 5.8 mph - N/A   Unknown
8:55 AM 53.6 °F - 44.6 °F 72% 29.98 in 10.0 mi NW 6.9 mph - N/A   Unknown
9:15 AM 55.2 °F - 45.1 °F 69% 30.00 in 10.0 mi NW 5.8 mph - N/A   Unknown
9:35 AM 56.8 °F - 44.6 °F 64% 30.00 in 10.0 mi NW 8.1 mph - N/A   Unknown
9:55 AM 58.1 °F - 43.7 °F 59% 30.00 in 10.0 mi NNW 8.1 mph - N/A   Unknown
10:15 AM 59.4 °F - 43.3 °F 55% 30.00 in 10.0 mi WNW 8.1 mph - N/A   Unknown
10:35 AM 61.2 °F - 43.9 °F 53% 30.01 in 10.0 mi West 12.7 mph - N/A   Unknown
10:55 AM 61.7 °F - 44.4 °F 53% 30.00 in 10.0 mi West 10.4 mph - N/A   Unknown
11:15 AM 63.0 °F - 44.4 °F 51% 30.00 in 10.0 mi West 6.9 mph - N/A   Unknown
11:55 AM 64.6 °F - 42.4 °F 44% 29.99 in 10.0 mi West 12.7 mph - N/A   Unknown
12:15 PM 66.0 °F - 41.4 °F 41% 29.98 in 10.0 mi NW 13.8 mph - N/A   Unknown
12:35 PM 66.0 °F - 40.8 °F 40% 29.97 in 10.0 mi WNW 11.5 mph - N/A   Unknown
12:55 PM 66.4 °F - 40.3 °F 38% 29.96 in 10.0 mi WNW 16.1 mph 20.7 mph N/A   Unknown
1:15 PM 66.9 °F - 40.1 °F 37% 29.96 in 10.0 mi West 11.5 mph - N/A   Unknown
1:35 PM 66.9 °F - 40.6 °F 38% 29.95 in 10.0 mi WNW 10.4 mph - N/A   Unknown
1:55 PM 66.7 °F - 39.4 °F 37% 29.94 in 10.0 mi WNW 10.4 mph - N/A   Unknown
2:15 PM 67.1 °F - 39.2 °F 36% 29.94 in 10.0 mi NW 10.4 mph - N/A   Unknown
2:35 PM 67.8 °F - 39.6 °F 36% 29.94 in 10.0 mi NW 6.9 mph - N/A   Unknown
2:55 PM 67.3 °F - 38.8 °F 35% 29.94 in 10.0 mi West 9.2 mph - N/A   Unknown
3:15 PM 67.8 °F - 39.2 °F 35% 29.94 in 10.0 mi WNW 6.9 mph - N/A   Unknown
3:35 PM 67.3 °F - 43.9 °F 43% 29.95 in 10.0 mi WSW 6.9 mph - N/A   Unknown
3:55 PM 66.0 °F - 44.6 °F 46% 29.95 in 10.0 mi WSW 9.2 mph - N/A   Unknown
4:15 PM 64.9 °F - 45.1 °F 49% 29.96 in 10.0 mi West 9.2 mph - N/A   Unknown
4:35 PM 63.9 °F - 45.1 °F 51% 29.96 in 10.0 mi West 9.2 mph - N/A   Unknown
4:55 PM 62.6 °F - 45.5 °F 54% 29.97 in 10.0 mi West 6.9 mph - N/A   Unknown
5:15 PM 60.8 °F - 45.7 °F 57% 29.98 in 10.0 mi WSW 4.6 mph - N/A   Unknown
5:55 PM 56.7 °F - 45.1 °F 65% 29.99 in 10.0 mi WSW 5.8 mph - N/A   Unknown
6:15 PM 53.8 °F - 45.1 °F 73% 29.99 in 10.0 mi Calm Calm - N/A   Unknown
6:35 PM 52.0 °F - 46.8 °F 82% 30.00 in 10.0 mi Calm Calm - N/A   Unknown
6:55 PM 50.0 °F - 45.9 °F 86% 30.00 in 10.0 mi Calm Calm - N/A   Unknown
7:15 PM 49.3 °F - 45.7 °F 87% 30.01 in 10.0 mi Calm Calm - N/A   Unknown
7:35 PM 48.2 °F - 45.0 °F 89% 30.01 in 10.0 mi Calm Calm - N/A   Unknown
7:55 PM 47.7 °F - 45.3 °F 92% 30.02 in - Calm Calm - N/A   Unknown
8:15 PM 46.2 °F - 43.7 °F 91% 30.02 in 10.0 mi Calm Calm - N/A   Unknown
8:35 PM 46.0 °F - 43.7 °F 92% 30.02 in 10.0 mi Calm Calm - N/A   Unknown
8:55 PM 46.2 °F - 44.6 °F 94% 30.03 in 10.0 mi Calm Calm - N/A   Unknown
9:15 PM 45.3 °F - 43.5 °F 93% 30.03 in 10.0 mi Calm Calm - N/A   Unknown
9:35 PM 44.8 °F - 43.0 °F 93% 30.03 in 10.0 mi Calm Calm - N/A   Unknown
9:55 PM 44.8 °F - 43.2 °F 94% 30.04 in 10.0 mi Calm Calm - N/A   Unknown
10:15 PM 44.2 °F - 42.6 °F 94% 30.04 in 10.0 mi Calm Calm - N/A   Unknown
10:35 PM 44.6 °F - 43.2 °F 95% 30.04 in 10.0 mi Calm Calm - N/A   Unknown
10:55 PM 43.7 °F - 41.9 °F 93% 30.04 in 10.0 mi Calm Calm - N/A   Unknown
11:15 PM 44.2 °F - 42.8 °F 95% 30.04 in 10.0 mi Calm Calm - N/A   Unknown
11:35 PM 43.5 °F - 42.4 °F 96% 30.04 in 7.0 mi Calm Calm - N/A   Unknown
11:55 PM 42.6 °F - 41.2 °F 95% 30.04 in 10.0 mi Calm Calm - N/A   Unknown